METAR Formatted Surface Weather Observation
Issued by NWS

Current Version | Previous Version | Text Only | Print | Product List | Glossary On
Versions: 1 2 3 4 5 6 7 8 9 10 11 12 13 14 15 16 17 18 19 20 21 22 23 24 25 26 27 28 29 30 31 32 33 34 35 36 37 38 39 40 41 42 43 44 45 46 47 48 49 50
000
SAUS41 KAKQ 281758
MTRNFE
METAR KNFE 281756Z AUTO VRB06KT 8SM -TSRA SCT025 24/22 A2996 RMK AO2
RAB27 TSB24 SLP147 P0041 60041 T02440217 10328 20244 50000


USA.gov is the U.S. government's official web portal to all federal, state and local government web resources and services.